Time,TemperatureF,DewpointF,PressureIn,WindDirection,WindDirectionDegrees,WindSpeedMPH,WindSpeedGustMPH,Humidity,HourlyPrecipIn,Conditions,Clouds,dailyrainin,SoftwareType,DateUTC
2013-11-19 00:00:00,32.7,22.2,30.13,North,0,6.0,18.0,65,0.00,,---,0.00,VWS V14.01,2013-11-19 05:00:00,
2013-11-19 00:01:00,32.7,22.2,30.13,North,0,6.0,18.0,65,0.00,,---,0.00,VWS V14.01,2013-11-19 05:01:00,
2013-11-19 00:02:00,32.7,22.2,30.13,NW,316,7.0,7.0,65,0.00,,---,0.00,VWS V14.01,2013-11-19 05:02:00,
2013-11-19 00:07:00,32.7,21.5,30.13,NW,305,7.0,13.0,63,0.00,,---,0.00,VWS V14.01,2013-11-19 05:07:00,
2013-11-19 00:12:00,32.7,22.2,30.13,NNW,339,6.0,13.0,65,0.00,,---,0.00,VWS V14.01,2013-11-19 05:12:00,
2013-11-19 00:17:00,32.7,23.0,30.13,West,277,5.0,13.0,67,0.00,,---,0.00,VWS V14.01,2013-11-19 05:17:00,
2013-11-19 00:22:00,32.5,23.1,30.13,North,0,5.0,13.0,68,0.00,,---,0.00,VWS V14.01,2013-11-19 05:22:00,
2013-11-19 00:27:00,32.5,23.1,30.13,NW,322,8.0,13.0,68,0.00,,---,0.00,VWS V14.01,2013-11-19 05:27:00,
2013-11-19 00:30:00,32.5,22.8,30.14,North,357,3.0,16.0,67,0.00,,---,0.00,VWS V14.01,2013-11-19 05:30:00,
2013-11-19 00:32:00,32.5,22.8,30.14,North,352,2.0,9.0,67,0.00,,---,0.00,VWS V14.01,2013-11-19 05:32:00,
2013-11-19 00:37:00,32.5,22.8,30.14,NNW,335,10.0,11.0,67,0.00,,---,0.00,VWS V14.01,2013-11-19 05:37:00,
2013-11-19 00:42:00,32.5,22.4,30.14,NNW,330,1.0,12.0,66,0.00,,---,0.00,VWS V14.01,2013-11-19 05:42:00,
2013-11-19 00:47:00,32.5,22.4,30.15,NNW,340,12.0,17.0,66,0.01,,---,0.01,VWS V14.01,2013-11-19 05:47:00,
2013-11-19 00:52:00,32.5,22.8,30.15,North,356,5.0,17.0,67,0.01,,---,0.01,VWS V14.01,2013-11-19 05:52:00,
2013-11-19 00:57:00,32.5,22.8,30.15,WNW,301,2.0,17.0,67,0.01,,---,0.01,VWS V14.01,2013-11-19 05:57:00,
2013-11-19 01:00:00,32.5,22.4,30.15,NW,323,14.0,17.0,66,0.01,,---,0.01,VWS V14.01,2013-11-19 06:00:00,
2013-11-19 01:02:00,32.4,22.0,30.15,NW,323,7.0,14.0,65,0.01,,---,0.01,VWS V14.01,2013-11-19 06:02:00,
2013-11-19 01:07:00,32.4,22.0,30.15,NNW,343,13.0,14.0,65,0.01,,---,0.01,VWS V14.01,2013-11-19 06:07:00,
2013-11-19 01:12:00,32.4,22.3,30.15,NNW,337,8.0,14.0,66,0.01,,---,0.01,VWS V14.01,2013-11-19 06:12:00,
2013-11-19 01:17:00,32.4,22.3,30.16,NNW,342,9.0,14.0,66,0.01,,---,0.01,VWS V14.01,2013-11-19 06:17:00,
2013-11-19 01:22:00,32.4,22.0,30.16,West,274,2.0,14.0,65,0.01,,---,0.01,VWS V14.01,2013-11-19 06:22:00,
2013-11-19 01:27:00,32.2,21.0,30.16,NNW,332,6.0,14.0,63,0.01,,---,0.01,VWS V14.01,2013-11-19 06:27:00,
2013-11-19 01:30:00,32.2,21.0,30.16,North,349,4.0,14.0,63,0.01,,---,0.01,VWS V14.01,2013-11-19 06:30:00,
2013-11-19 01:32:00,32.2,21.4,30.16,North,353,8.0,11.0,64,0.01,,---,0.01,VWS V14.01,2013-11-19 06:32:00,
2013-11-19 01:37:00,32.2,21.4,30.16,NNW,346,7.0,20.0,64,0.01,,---,0.01,VWS V14.01,2013-11-19 06:37:00,
2013-11-19 01:42:00,32.1,20.9,30.16,NW,320,3.0,20.0,63,0.01,,---,0.01,VWS V14.01,2013-11-19 06:42:00,
2013-11-19 01:47:00,32.1,21.3,30.17,North,0,7.0,20.0,64,0.01,,---,0.01,VWS V14.01,2013-11-19 06:47:00,
2013-11-19 01:52:00,32.2,21.8,30.17,NW,320,8.0,20.0,65,0.01,,---,0.01,VWS V14.01,2013-11-19 06:52:00,
2013-11-19 01:57:00,32.1,21.7,30.17,North,359,3.0,20.0,65,0.01,,---,0.01,VWS V14.01,2013-11-19 06:57:00,
2013-11-19 02:00:00,32.1,21.7,30.17,NW,316,3.0,20.0,65,0.01,,---,0.01,VWS V14.01,2013-11-19 07:00:00,
2013-11-19 02:02:00,32.1,21.7,30.17,NNW,329,5.0,7.0,65,0.00,,---,0.01,VWS V14.01,2013-11-19 07:02:00,
2013-11-19 02:07:00,32.1,21.3,30.17,SW,226,2.0,11.0,64,0.00,,---,0.01,VWS V14.01,2013-11-19 07:07:00,
2013-11-19 02:12:00,32.1,21.3,30.17,NW,306,3.0,14.0,64,0.00,,---,0.01,VWS V14.01,2013-11-19 07:12:00,
2013-11-19 02:17:00,32.1,21.3,30.17,WNW,282,11.0,14.0,64,0.00,,---,0.01,VWS V14.01,2013-11-19 07:17:00,
2013-11-19 02:22:00,32.1,21.7,30.17,West,268,2.0,14.0,65,0.00,,---,0.01,VWS V14.01,2013-11-19 07:22:00,
2013-11-19 02:27:00,32.1,21.3,30.17,North,0,8.0,14.0,64,0.00,,---,0.01,VWS V14.01,2013-11-19 07:27:00,
2013-11-19 02:30:00,32.1,20.9,30.17,NNW,336,8.0,14.0,63,0.00,,---,0.01,VWS V14.01,2013-11-19 07:30:00,
2013-11-19 02:32:00,32.1,21.3,30.17,WNW,301,6.0,11.0,64,0.00,,---,0.01,VWS V14.01,2013-11-19 07:32:00,
2013-11-19 02:37:00,32.1,22.0,30.17,North,3,11.0,11.0,66,0.00,,---,0.01,VWS V14.01,2013-11-19 07:37:00,
2013-11-19 02:42:00,32.1,22.0,30.17,NNW,335,4.0,11.0,66,0.00,,---,0.01,VWS V14.01,2013-11-19 07:42:00,
2013-11-19 02:47:00,32.1,22.0,30.18,NNW,340,6.0,11.0,66,0.00,,---,0.01,VWS V14.01,2013-11-19 07:47:00,
2013-11-19 02:52:00,32.1,21.7,30.18,WSW,247,7.0,11.0,65,0.00,,---,0.01,VWS V14.01,2013-11-19 07:52:00,
2013-11-19 02:57:00,31.9,22.2,30.18,NNW,339,0.0,11.0,67,0.00,,---,0.01,VWS V14.01,2013-11-19 07:57:00,
2013-11-19 03:00:00,31.9,22.5,30.19,North,350,7.0,11.0,68,0.00,,---,0.01,VWS V14.01,2013-11-19 08:00:00,
2013-11-19 03:02:00,31.9,22.5,30.19,NW,306,2.0,8.0,68,0.00,,---,0.01,VWS V14.01,2013-11-19 08:02:00,
2013-11-19 03:07:00,31.9,23.2,30.19,North,0,12.0,12.0,70,0.00,,---,0.01,VWS V14.01,2013-11-19 08:07:00,
2013-11-19 03:12:00,31.9,23.2,30.19,NNW,329,13.0,16.0,70,0.00,,---,0.01,VWS V14.01,2013-11-19 08:12:00,
2013-11-19 03:17:00,31.8,23.1,30.20,NW,316,8.0,16.0,70,0.00,,---,0.01,VWS V14.01,2013-11-19 08:17:00,
2013-11-19 03:22:00,31.8,23.1,30.20,North,353,4.0,16.0,70,0.00,,---,0.01,VWS V14.01,2013-11-19 08:22:00,
2013-11-19 03:27:00,31.8,23.1,30.20,North,353,7.0,16.0,70,0.00,,---,0.01,VWS V14.01,2013-11-19 08:27:00,
2013-11-19 03:30:00,31.6,23.0,30.21,NNW,343,8.0,16.0,70,0.00,,---,0.01,VWS V14.01,2013-11-19 08:30:00,
2013-11-19 03:33:00,31.6,23.0,30.21,NW,309,5.0,13.0,70,0.00,,---,0.01,VWS V14.01,2013-11-19 08:33:00,
2013-11-19 03:38:00,31.6,22.6,30.21,NW,325,6.0,14.0,69,0.01,,---,0.02,VWS V14.01,2013-11-19 08:38:00,
2013-11-19 03:43:00,31.5,22.5,30.21,NW,311,6.0,14.0,69,0.01,,---,0.02,VWS V14.01,2013-11-19 08:43:00,
2013-11-19 03:48:00,31.5,22.9,30.21,North,349,8.0,14.0,70,0.01,,---,0.02,VWS V14.01,2013-11-19 08:48:00,
2013-11-19 03:53:00,31.5,22.9,30.21,North,354,5.0,14.0,70,0.01,,---,0.02,VWS V14.01,2013-11-19 08:53:00,
2013-11-19 03:58:00,31.3,22.3,30.21,NNW,330,14.0,16.0,69,0.01,,---,0.02,VWS V14.01,2013-11-19 08:58:00,
2013-11-19 04:00:00,31.3,22.3,30.22,North,352,6.0,17.0,69,0.01,,---,0.02,VWS V14.01,2013-11-19 09:00:00,
2013-11-19 04:03:00,31.3,22.3,30.22,NNW,343,11.0,12.0,69,0.01,,---,0.02,VWS V14.01,2013-11-19 09:03:00,
2013-11-19 04:08:00,31.2,21.9,30.22,North,0,5.0,15.0,68,0.01,,---,0.02,VWS V14.01,2013-11-19 09:08:00,
2013-11-19 04:13:00,31.2,22.2,30.22,NW,316,11.0,15.0,69,0.01,,---,0.02,VWS V14.01,2013-11-19 09:13:00,
2013-11-19 04:18:00,31.2,22.2,30.23,NNW,339,14.0,17.0,69,0.01,,---,0.02,VWS V14.01,2013-11-19 09:18:00,
2013-11-19 04:23:00,31.0,22.4,30.23,NW,308,11.0,17.0,70,0.01,,---,0.02,VWS V14.01,2013-11-19 09:23:00,
2013-11-19 04:28:00,31.2,22.6,30.23,NNW,344,6.0,17.0,70,0.01,,---,0.02,VWS V14.01,2013-11-19 09:28:00,
2013-11-19 04:30:00,31.0,22.0,30.24,North,353,17.0,17.0,69,0.01,,---,0.02,VWS V14.01,2013-11-19 09:30:00,
2013-11-19 04:33:00,31.0,22.0,30.24,WNW,295,10.0,17.0,69,0.01,,---,0.02,VWS V14.01,2013-11-19 09:33:00,
2013-11-19 04:38:00,30.9,21.9,30.24,NW,305,6.0,17.0,69,0.01,,---,0.02,VWS V14.01,2013-11-19 09:38:00,
2013-11-19 04:43:00,30.7,21.8,30.24,North,353,5.0,17.0,69,0.01,,---,0.02,VWS V14.01,2013-11-19 09:43:00,
2013-11-19 04:48:00,30.7,21.4,30.24,North,0,5.0,17.0,68,0.01,,---,0.02,VWS V14.01,2013-11-19 09:48:00,
2013-11-19 04:53:00,30.9,22.3,30.24,North,359,9.0,18.0,70,0.01,,---,0.02,VWS V14.01,2013-11-19 09:53:00,
2013-11-19 04:58:00,30.9,21.9,30.24,NW,305,6.0,18.0,69,0.01,,---,0.02,VWS V14.01,2013-11-19 09:58:00,
2013-11-19 05:00:00,30.9,21.6,30.25,North,359,7.0,18.0,68,0.01,,---,0.02,VWS V14.01,2013-11-19 10:00:00,
2013-11-19 05:03:00,30.9,21.6,30.25,North,0,10.0,12.0,68,0.00,,---,0.02,VWS V14.01,2013-11-19 10:03:00,
2013-11-19 05:08:00,30.7,21.1,30.25,NW,308,10.0,13.0,67,0.00,,---,0.02,VWS V14.01,2013-11-19 10:08:00,
2013-11-19 05:13:00,30.7,21.1,30.25,NNW,335,7.0,17.0,67,0.00,,---,0.02,VWS V14.01,2013-11-19 10:13:00,
2013-11-19 05:18:00,30.7,21.4,30.26,NW,319,6.0,17.0,68,0.00,,---,0.02,VWS V14.01,2013-11-19 10:18:00,
2013-11-19 05:23:00,30.7,21.8,30.26,North,353,7.0,17.0,69,0.01,,---,0.03,VWS V14.01,2013-11-19 10:23:00,
2013-11-19 05:28:00,30.7,21.8,30.26,NW,316,6.0,17.0,69,0.01,,---,0.03,VWS V14.01,2013-11-19 10:28:00,
2013-11-19 05:30:00,30.7,21.4,30.26,North,357,6.0,19.0,68,0.01,,---,0.03,VWS V14.01,2013-11-19 10:30:00,
2013-11-19 05:33:00,30.7,21.8,30.26,NNW,329,7.0,14.0,69,0.01,,---,0.03,VWS V14.01,2013-11-19 10:33:00,
2013-11-19 05:38:00,30.6,21.3,30.26,NNW,347,11.0,16.0,68,0.01,,---,0.03,VWS V14.01,2013-11-19 10:38:00,
2013-11-19 05:43:00,30.6,21.3,30.26,NW,316,8.0,16.0,68,0.01,,---,0.03,VWS V14.01,2013-11-19 10:43:00,
2013-11-19 05:48:00,30.4,21.1,30.27,North,359,6.0,16.0,68,0.01,,---,0.03,VWS V14.01,2013-11-19 10:48:00,
2013-11-19 05:53:00,30.4,21.1,30.27,North,357,7.0,16.0,68,0.01,,---,0.03,VWS V14.01,2013-11-19 10:53:00,
2013-11-19 05:58:00,30.4,21.1,30.27,NNW,333,6.0,16.0,68,0.01,,---,0.03,VWS V14.01,2013-11-19 10:58:00,
2013-11-19 06:00:00,30.4,21.5,30.27,NW,326,13.0,16.0,69,0.01,,---,0.03,VWS V14.01,2013-11-19 11:00:00,
2013-11-19 06:03:00,30.4,21.1,30.27,NNW,337,7.0,17.0,68,0.01,,---,0.03,VWS V14.01,2013-11-19 11:03:00,
2013-11-19 06:08:00,30.3,20.7,30.27,NNW,330,7.0,17.0,67,0.01,,---,0.03,VWS V14.01,2013-11-19 11:08:00,
2013-11-19 06:13:00,30.1,20.5,30.27,North,354,6.0,17.0,67,0.01,,---,0.03,VWS V14.01,2013-11-19 11:13:00,
2013-11-19 06:18:00,30.1,20.1,30.28,North,353,8.0,17.0,66,0.01,,---,0.03,VWS V14.01,2013-11-19 11:18:00,
2013-11-19 06:23:00,30.1,20.8,30.28,NNW,347,7.0,17.0,68,0.01,,---,0.03,VWS V14.01,2013-11-19 11:23:00,
2013-11-19 06:28:00,30.0,19.7,30.28,NNW,344,6.0,17.0,65,0.01,,---,0.03,VWS V14.01,2013-11-19 11:28:00,
2013-11-19 06:30:00,30.0,19.7,30.28,NNW,339,10.0,17.0,65,0.01,,---,0.03,VWS V14.01,2013-11-19 11:30:00,
2013-11-19 06:33:00,30.0,19.7,30.28,NW,316,6.0,12.0,65,0.00,,---,0.03,VWS V14.01,2013-11-19 11:33:00,
2013-11-19 06:38:00,29.8,19.8,30.28,NW,315,1.0,12.0,66,0.00,,---,0.03,VWS V14.01,2013-11-19 11:38:00,
2013-11-19 06:43:00,29.8,19.8,30.28,NW,318,3.0,12.0,66,0.00,,---,0.03,VWS V14.01,2013-11-19 11:43:00,
2013-11-19 06:48:00,29.8,19.8,30.29,NW,319,3.0,12.0,66,0.00,,---,0.03,VWS V14.01,2013-11-19 11:48:00,
2013-11-19 06:53:00,30.0,20.4,30.29,NNW,337,3.0,12.0,67,0.00,,---,0.03,VWS V14.01,2013-11-19 11:53:00,
2013-11-19 06:58:00,30.0,20.4,30.29,NW,304,2.0,12.0,67,0.00,,---,0.03,VWS V14.01,2013-11-19 11:58:00,
2013-11-19 07:00:00,30.0,20.4,30.31,WSW,246,3.0,12.0,67,0.00,,---,0.03,VWS V14.01,2013-11-19 12:00:00,
2013-11-19 07:03:00,30.1,20.5,30.31,NNW,337,0.0,7.0,67,0.00,,---,0.03,VWS V14.01,2013-11-19 12:03:00,
2013-11-19 07:08:00,30.1,20.5,30.31,WNW,287,5.0,7.0,67,0.00,,---,0.03,VWS V14.01,2013-11-19 12:08:00,
2013-11-19 07:13:00,30.1,20.5,30.31,NW,308,6.0,8.0,67,0.00,,---,0.03,VWS V14.01,2013-11-19 12:13:00,
2013-11-19 07:18:00,30.1,20.8,30.32,NNW,347,7.0,10.0,68,0.00,,---,0.03,VWS V14.01,2013-11-19 12:18:00,
2013-11-19 07:23:00,30.0,20.4,30.32,North,354,5.0,10.0,67,0.00,,---,0.03,VWS V14.01,2013-11-19 12:23:00,
2013-11-19 07:28:00,30.0,20.4,30.32,North,352,8.0,11.0,67,0.00,,---,0.03,VWS V14.01,2013-11-19 12:28:00,
2013-11-19 07:30:00,30.0,20.4,30.32,NW,319,10.0,11.0,67,0.00,,---,0.03,VWS V14.01,2013-11-19 12:30:00,
2013-11-19 07:33:00,30.0,19.7,30.32,WNW,294,5.0,10.0,65,0.00,,---,0.03,VWS V14.01,2013-11-19 12:33:00,
2013-11-19 07:38:00,29.8,19.5,30.32,NNW,342,6.0,10.0,65,0.00,,---,0.03,VWS V14.01,2013-11-19 12:38:00,
2013-11-19 07:43:00,29.8,19.8,30.32,NW,313,6.0,10.0,66,0.00,,---,0.03,VWS V14.01,2013-11-19 12:43:00,
2013-11-19 07:48:00,29.8,19.1,30.33,NNW,335,11.0,12.0,64,0.00,,---,0.03,VWS V14.01,2013-11-19 12:48:00,
2013-11-19 07:53:00,29.7,19.0,30.33,North,354,3.0,12.0,64,0.00,,---,0.03,VWS V14.01,2013-11-19 12:53:00,
2013-11-19 07:58:00,29.7,19.4,30.33,North,0,5.0,12.0,65,0.00,,---,0.03,VWS V14.01,2013-11-19 12:58:00,
2013-11-19 08:00:00,29.7,19.4,30.33,NNW,332,0.0,12.0,65,0.00,,---,0.03,VWS V14.01,2013-11-19 13:00:00,
2013-11-19 08:03:00,29.7,19.8,30.33,North,353,1.0,6.0,66,0.00,,---,0.03,VWS V14.01,2013-11-19 13:03:00,
2013-11-19 08:08:00,29.7,19.8,30.33,NW,322,4.0,6.0,66,0.00,,---,0.03,VWS V14.01,2013-11-19 13:08:00,
2013-11-19 08:13:00,29.7,19.8,30.33,NW,309,2.0,8.0,66,0.00,,---,0.03,VWS V14.01,2013-11-19 13:13:00,
2013-11-19 08:18:00,29.7,19.8,30.33,WNW,291,1.0,8.0,66,0.00,,---,0.03,VWS V14.01,2013-11-19 13:18:00,
2013-11-19 08:23:00,29.7,19.8,30.33,SW,223,0.0,8.0,66,0.00,,---,0.03,VWS V14.01,2013-11-19 13:23:00,
2013-11-19 08:28:00,29.7,19.8,30.33,WSW,244,0.0,8.0,66,0.00,,---,0.03,VWS V14.01,2013-11-19 13:28:00,
2013-11-19 08:30:00,29.7,20.1,30.34,WSW,241,3.0,8.0,67,0.00,,---,0.03,VWS V14.01,2013-11-19 13:30:00,
2013-11-19 08:33:00,29.7,19.8,30.34,West,261,5.0,5.0,66,0.00,,---,0.03,VWS V14.01,2013-11-19 13:33:00,
2013-11-19 08:38:00,29.7,19.8,30.34,West,281,2.0,5.0,66,0.00,,---,0.03,VWS V14.01,2013-11-19 13:38:00,
2013-11-19 08:43:00,29.7,20.1,30.34,WNW,289,0.0,5.0,67,0.00,,---,0.03,VWS V14.01,2013-11-19 13:43:00,
2013-11-19 08:48:00,29.8,20.2,30.34,WSW,241,1.0,5.0,67,0.00,,---,0.03,VWS V14.01,2013-11-19 13:48:00,
2013-11-19 08:53:00,29.8,20.5,30.34,WNW,299,1.0,5.0,68,0.00,,---,0.03,VWS V14.01,2013-11-19 13:53:00,
2013-11-19 08:58:00,29.8,20.2,30.34,WSW,248,0.0,5.0,67,0.00,,---,0.03,VWS V14.01,2013-11-19 13:58:00,
2013-11-19 09:00:00,30.0,20.4,30.34,SW,232,2.0,5.0,67,0.00,,---,0.03,VWS V14.01,2013-11-19 14:00:00,
2013-11-19 09:03:00,30.0,20.4,30.34,WSW,241,6.0,6.0,67,0.00,,---,0.03,VWS V14.01,2013-11-19 14:03:00,
2013-11-19 09:08:00,30.0,20.7,30.34,West,281,2.0,6.0,68,0.00,,---,0.03,VWS V14.01,2013-11-19 14:08:00,
2013-11-19 09:13:00,30.0,20.4,30.34,WSW,246,1.0,6.0,67,0.00,,---,0.03,VWS V14.01,2013-11-19 14:13:00,
2013-11-19 09:18:00,30.0,20.4,30.35,SSW,212,0.0,6.0,67,0.00,,---,0.03,VWS V14.01,2013-11-19 14:18:00,
2013-11-19 09:23:00,30.1,20.8,30.35,West,267,0.0,6.0,68,0.00,,---,0.03,VWS V14.01,2013-11-19 14:23:00,
2013-11-19 09:28:00,30.1,20.5,30.35,West,274,0.0,6.0,67,0.00,,---,0.03,VWS V14.01,2013-11-19 14:28:00,
2013-11-19 09:30:00,30.1,20.8,30.35,WNW,288,0.0,6.0,68,0.00,,---,0.03,VWS V14.01,2013-11-19 14:30:00,
2013-11-19 09:33:00,30.3,21.0,30.35,WNW,291,0.0,1.0,68,0.00,,---,0.03,VWS V14.01,2013-11-19 14:33:00,
2013-11-19 09:38:00,30.4,20.8,30.35,NW,304,1.0,3.0,67,0.00,,---,0.03,VWS V14.01,2013-11-19 14:38:00,
2013-11-19 09:43:00,30.6,21.0,30.35,NW,325,3.0,3.0,67,0.00,,---,0.03,VWS V14.01,2013-11-19 14:43:00,
2013-11-19 09:48:00,30.6,21.0,30.35,WSW,237,2.0,6.0,67,0.00,,---,0.03,VWS V14.01,2013-11-19 14:48:00,
2013-11-19 09:53:00,30.7,20.7,30.35,NNW,332,1.0,6.0,66,0.00,,---,0.03,VWS V14.01,2013-11-19 14:53:00,
2013-11-19 09:58:00,30.9,21.2,30.35,NW,315,0.0,6.0,67,0.00,,---,0.03,VWS V14.01,2013-11-19 14:58:00,
2013-11-19 10:00:00,30.9,21.6,30.36,West,278,2.0,6.0,68,0.00,,---,0.03,VWS V14.01,2013-11-19 15:00:00,
2013-11-19 10:03:00,31.0,21.3,30.36,WNW,289,0.0,2.0,67,0.00,,---,0.03,VWS V14.01,2013-11-19 15:03:00,
2013-11-19 10:08:00,31.0,21.0,30.36,WNW,299,2.0,5.0,66,0.00,,---,0.03,VWS V14.01,2013-11-19 15:08:00,
2013-11-19 10:13:00,31.0,21.7,30.36,NW,304,0.0,5.0,68,0.00,,---,0.03,VWS V14.01,2013-11-19 15:13:00,
2013-11-19 10:18:00,31.2,20.8,30.37,WSW,239,0.0,5.0,65,0.00,,---,0.03,VWS V14.01,2013-11-19 15:18:00,
2013-11-19 10:23:00,31.2,21.5,30.37,NW,306,2.0,5.0,67,0.00,,---,0.03,VWS V14.01,2013-11-19 15:23:00,
2013-11-19 10:28:00,31.2,21.2,30.37,NW,325,2.0,6.0,66,0.00,,---,0.03,VWS V14.01,2013-11-19 15:28:00,
2013-11-19 10:30:00,31.2,21.5,30.37,NW,315,0.0,6.0,67,0.00,,---,0.03,VWS V14.01,2013-11-19 15:30:00,
2013-11-19 10:33:00,31.2,21.2,30.37,WNW,302,1.0,3.0,66,0.00,,---,0.03,VWS V14.01,2013-11-19 15:33:00,
2013-11-19 10:38:00,31.3,21.3,30.37,WSW,250,2.0,6.0,66,0.00,,---,0.03,VWS V14.01,2013-11-19 15:38:00,
2013-11-19 10:43:00,31.5,21.5,30.37,SSW,212,2.0,6.0,66,0.00,,---,0.03,VWS V14.01,2013-11-19 15:43:00,
2013-11-19 10:48:00,31.6,21.6,30.38,WSW,244,1.0,6.0,66,0.00,,---,0.03,VWS V14.01,2013-11-19 15:48:00,
2013-11-19 10:53:00,31.6,21.2,30.38,WNW,292,0.0,6.0,65,0.00,,---,0.03,VWS V14.01,2013-11-19 15:53:00,
2013-11-19 10:58:00,31.8,21.8,30.38,NW,309,1.0,7.0,66,0.00,,---,0.03,VWS V14.01,2013-11-19 15:58:00,
2013-11-19 11:00:00,31.8,21.8,30.38,NW,308,3.0,7.0,66,0.00,,---,0.03,VWS V14.01,2013-11-19 16:00:00,
2013-11-19 11:03:00,31.8,21.8,30.38,WNW,294,0.0,3.0,66,0.00,,---,0.03,VWS V14.01,2013-11-19 16:03:00,
2013-11-19 11:08:00,32.1,22.0,30.38,ESE,114,0.0,4.0,66,0.00,,---,0.03,VWS V14.01,2013-11-19 16:08:00,
2013-11-19 11:13:00,32.2,21.8,30.38,West,263,2.0,7.0,65,0.00,,---,0.03,VWS V14.01,2013-11-19 16:13:00,
2013-11-19 11:18:00,32.2,21.8,30.37,NW,319,5.0,8.0,65,0.00,,---,0.03,VWS V14.01,2013-11-19 16:18:00,
2013-11-19 11:23:00,32.4,22.0,30.37,West,271,0.0,8.0,65,0.01,,---,0.04,VWS V14.01,2013-11-19 16:23:00,
2013-11-19 11:28:00,32.4,22.0,30.37,NW,315,3.0,8.0,65,0.01,,---,0.04,VWS V14.01,2013-11-19 16:28:00,
2013-11-19 11:30:00,32.5,22.1,30.37,NW,313,1.0,8.0,65,0.01,,---,0.04,VWS V14.01,2013-11-19 16:30:00,
2013-11-19 11:33:00,32.7,21.9,30.37,NW,308,4.0,6.0,64,0.01,,---,0.04,VWS V14.01,2013-11-19 16:33:00,
2013-11-19 11:38:00,32.5,22.1,30.37,NNW,328,3.0,6.0,65,0.01,,---,0.04,VWS V14.01,2013-11-19 16:38:00,
2013-11-19 11:43:00,32.5,22.4,30.37,WNW,295,4.0,6.0,66,0.01,,---,0.04,VWS V14.01,2013-11-19 16:43:00,
2013-11-19 11:48:00,32.4,21.6,30.37,WNW,299,3.0,7.0,64,0.01,,---,0.04,VWS V14.01,2013-11-19 16:48:00,
2013-11-19 11:53:00,32.7,23.0,30.37,North,352,7.0,8.0,67,0.01,,---,0.04,VWS V14.01,2013-11-19 16:53:00,
2013-11-19 11:58:00,32.5,21.7,30.37,WNW,298,0.0,8.0,64,0.01,,---,0.04,VWS V14.01,2013-11-19 16:58:00,
2013-11-19 12:00:00,32.5,21.7,30.37,WNW,299,1.0,8.0,64,0.01,,---,0.04,VWS V14.01,2013-11-19 17:00:00,
2013-11-19 12:03:00,32.5,21.7,30.37,NNW,347,7.0,7.0,64,0.01,,---,0.04,VWS V14.01,2013-11-19 17:03:00,
2013-11-19 12:08:00,32.5,21.7,30.37,NW,325,3.0,7.0,64,0.01,,---,0.04,VWS V14.01,2013-11-19 17:08:00,
2013-11-19 12:13:00,33.2,22.0,30.37,NNE,31,0.0,7.0,63,0.01,,---,0.04,VWS V14.01,2013-11-19 17:13:00,
2013-11-19 12:18:00,33.4,21.8,30.37,WNW,301,1.0,7.0,62,0.01,,---,0.04,VWS V14.01,2013-11-19 17:18:00,
2013-11-19 12:23:00,33.4,22.2,30.37,NNW,343,5.0,8.0,63,0.01,,---,0.04,VWS V14.01,2013-11-19 17:23:00,
2013-11-19 12:28:00,33.4,22.2,30.37,North,0,3.0,8.0,63,0.01,,---,0.04,VWS V14.01,2013-11-19 17:28:00,
2013-11-19 12:30:00,33.7,22.1,30.37,North,353,3.0,8.0,62,0.01,,---,0.04,VWS V14.01,2013-11-19 17:30:00,
2013-11-19 12:33:00,33.5,21.9,30.37,North,11,6.0,7.0,62,0.00,,---,0.04,VWS V14.01,2013-11-19 17:33:00,
2013-11-19 12:35:00,33.5,22.3,30.37,North,7,8.0,8.0,63,0.00,,---,0.04,VWS V14.01,2013-11-19 17:35:00,
2013-11-19 12:40:00,33.4,21.8,30.37,North,350,0.0,8.0,62,0.00,,---,0.04,VWS V14.01,2013-11-19 17:40:00,
2013-11-19 12:45:00,33.5,21.9,30.37,WNW,302,5.0,8.0,62,0.00,,---,0.04,VWS V14.01,2013-11-19 17:45:00,
2013-11-19 12:50:00,33.2,21.6,30.37,NNW,336,0.0,8.0,62,0.00,,---,0.04,VWS V14.01,2013-11-19 17:50:00,
2013-11-19 12:55:00,33.8,21.4,30.37,NW,309,2.0,8.0,60,0.00,,---,0.04,VWS V14.01,2013-11-19 17:55:00,
2013-11-19 13:00:00,34.3,21.5,30.37,NNE,18,3.0,8.0,59,0.00,,---,0.04,VWS V14.01,2013-11-19 18:00:00,
2013-11-19 13:05:00,34.3,21.1,30.37,NW,312,1.0,6.0,58,0.00,,---,0.04,VWS V14.01,2013-11-19 18:05:00,
2013-11-19 13:10:00,34.4,22.0,30.37,WSW,246,0.0,6.0,60,0.00,,---,0.04,VWS V14.01,2013-11-19 18:10:00,
2013-11-19 13:15:00,34.9,21.6,30.36,WSW,250,1.0,6.0,58,0.00,,---,0.04,VWS V14.01,2013-11-19 18:15:00,
2013-11-19 13:20:00,34.7,21.5,30.36,NE,56,3.0,6.0,58,0.00,,---,0.04,VWS V14.01,2013-11-19 18:20:00,
2013-11-19 15:58:00,34.6,22.2,30.36,NW,313,1.0,1.0,60,0.00,,---,0.04,VWS V14.01,2013-11-19 20:58:00,
2013-11-19 16:00:00,34.6,21.8,30.36,NW,313,0.0,1.0,59,0.00,,---,0.04,VWS V14.01,2013-11-19 21:00:00,
2013-11-19 16:03:00,34.6,21.8,30.36,NW,313,0.0,0.0,59,0.00,,---,0.04,VWS V14.01,2013-11-19 21:03:00,
2013-11-19 16:08:00,34.6,21.8,30.35,NW,313,0.0,0.0,59,0.00,,---,0.04,VWS V14.01,2013-11-19 21:08:00,
2013-11-19 16:13:00,34.6,22.2,30.35,NW,313,0.0,0.0,60,0.00,,---,0.04,VWS V14.01,2013-11-19 21:13:00,
2013-11-19 16:18:00,34.3,21.9,30.35,NW,313,1.0,3.0,60,0.00,,---,0.04,VWS V14.01,2013-11-19 21:18:00,
2013-11-19 16:23:00,34.1,22.1,30.35,NW,313,2.0,3.0,61,0.00,,---,0.04,VWS V14.01,2013-11-19 21:23:00,
2013-11-19 16:28:00,33.8,22.2,30.35,NW,316,2.0,3.0,62,0.00,,---,0.04,VWS V14.01,2013-11-19 21:28:00,
2013-11-19 16:30:00,33.8,22.6,30.35,NW,316,1.0,3.0,63,0.00,,---,0.04,VWS V14.01,2013-11-19 21:30:00,
2013-11-19 16:33:00,33.5,22.6,30.35,NNW,332,2.0,4.0,64,0.00,,---,0.04,VWS V14.01,2013-11-19 21:33:00,
2013-11-19 16:38:00,33.1,23.0,30.35,NNW,332,1.0,4.0,66,0.00,,---,0.04,VWS V14.01,2013-11-19 21:38:00,
2013-11-19 16:43:00,32.7,22.6,30.35,North,0,3.0,5.0,66,0.00,,---,0.04,VWS V14.01,2013-11-19 21:43:00,
2013-11-19 16:48:00,32.2,22.8,30.35,North,0,2.0,5.0,68,0.00,,---,0.04,VWS V14.01,2013-11-19 21:48:00,
2013-11-19 16:53:00,32.1,22.8,30.35,North,0,0.0,5.0,68,0.00,,---,0.04,VWS V14.01,2013-11-19 21:53:00,
2013-11-19 16:58:00,31.8,22.8,30.35,North,0,0.0,5.0,69,0.00,,---,0.04,VWS V14.01,2013-11-19 21:58:00,
2013-11-19 17:00:00,31.6,22.6,30.35,North,0,0.0,5.0,69,0.00,,---,0.04,VWS V14.01,2013-11-19 22:00:00,
2013-11-19 17:04:00,31.5,22.5,30.35,North,0,0.0,0.0,69,0.00,,---,0.04,VWS V14.01,2013-11-19 22:04:00,
2013-11-19 17:09:00,31.3,22.3,30.35,North,0,0.0,0.0,69,0.00,,---,0.04,VWS V14.01,2013-11-19 22:09:00,
2013-11-19 17:14:00,30.9,21.9,30.35,North,0,0.0,0.0,69,0.00,,---,0.04,VWS V14.01,2013-11-19 22:14:00,
2013-11-19 17:19:00,30.9,21.9,30.35,North,0,0.0,0.0,69,0.00,,---,0.04,VWS V14.01,2013-11-19 22:19:00,
2013-11-19 17:24:00,30.9,22.3,30.35,North,0,0.0,0.0,70,0.00,,---,0.04,VWS V14.01,2013-11-19 22:24:00,
2013-11-19 17:29:00,30.6,22.7,30.35,North,0,0.0,0.0,72,0.00,,---,0.04,VWS V14.01,2013-11-19 22:29:00,
2013-11-19 17:30:00,30.6,22.7,30.36,North,0,0.0,0.0,72,0.00,,---,0.04,VWS V14.01,2013-11-19 22:30:00,
2013-11-19 17:34:00,30.3,22.4,30.36,North,0,0.0,0.0,72,0.00,,---,0.04,VWS V14.01,2013-11-19 22:34:00,
2013-11-19 17:39:00,29.8,21.9,30.36,North,0,0.0,0.0,72,0.00,,---,0.04,VWS V14.01,2013-11-19 22:39:00,
2013-11-19 17:44:00,29.7,21.8,30.36,North,0,0.0,0.0,72,0.00,,---,0.04,VWS V14.01,2013-11-19 22:44:00,
2013-11-19 17:49:00,29.7,21.8,30.36,North,0,0.0,0.0,72,0.00,,---,0.04,VWS V14.01,2013-11-19 22:49:00,
2013-11-19 17:54:00,29.7,21.8,30.36,North,0,0.0,0.0,72,0.00,,---,0.04,VWS V14.01,2013-11-19 22:54:00,
2013-11-19 17:59:00,29.5,22.2,30.36,North,0,0.0,0.0,74,0.00,,---,0.04,VWS V14.01,2013-11-19 22:59:00,
2013-11-19 18:00:00,29.4,21.8,30.36,North,0,0.0,0.0,73,0.00,,---,0.04,VWS V14.01,2013-11-19 23:00:00,
2013-11-19 18:04:00,29.3,21.7,30.36,North,0,0.0,0.0,73,0.00,,---,0.04,VWS V14.01,2013-11-19 23:04:00,
2013-11-19 18:09:00,29.1,21.9,30.36,North,0,0.0,0.0,74,0.00,,---,0.04,VWS V14.01,2013-11-19 23:09:00,
2013-11-19 18:14:00,29.0,21.8,30.36,North,0,0.0,0.0,74,0.00,,---,0.04,VWS V14.01,2013-11-19 23:14:00,
2013-11-19 18:19:00,28.8,21.6,30.36,North,0,0.0,0.0,74,0.00,,---,0.04,VWS V14.01,2013-11-19 23:19:00,
2013-11-19 18:24:00,28.7,21.5,30.36,North,0,0.0,0.0,74,0.00,,---,0.04,VWS V14.01,2013-11-19 23:24:00,
2013-11-19 18:29:00,28.5,21.9,30.36,North,0,0.0,0.0,76,0.00,,---,0.04,VWS V14.01,2013-11-19 23:29:00,
2013-11-19 18:30:00,28.5,21.9,30.37,North,0,0.0,0.0,76,0.00,,---,0.04,VWS V14.01,2013-11-19 23:30:00,
2013-11-19 18:34:00,28.4,21.8,30.37,North,0,0.0,0.0,76,0.00,,---,0.04,VWS V14.01,2013-11-19 23:34:00,
2013-11-19 18:39:00,28.2,21.9,30.37,North,0,0.0,0.0,77,0.00,,---,0.04,VWS V14.01,2013-11-19 23:39:00,
2013-11-19 18:44:00,28.1,22.1,30.37,North,0,0.0,0.0,78,0.00,,---,0.04,VWS V14.01,2013-11-19 23:44:00,
2013-11-19 18:49:00,28.2,22.2,30.36,North,0,0.0,0.0,78,0.00,,---,0.04,VWS V14.01,2013-11-19 23:49:00,
2013-11-19 18:54:00,28.2,22.2,30.36,North,0,0.0,0.0,78,0.00,,---,0.04,VWS V14.01,2013-11-19 23:54:00,
2013-11-19 18:59:00,28.1,22.4,30.36,North,0,0.0,0.0,79,0.00,,---,0.04,VWS V14.01,2013-11-19 23:59:00,
2013-11-19 19:00:00,28.1,22.4,30.36,North,0,0.0,0.0,79,0.00,,---,0.04,VWS V14.01,2013-11-20 00:00:00,
2013-11-19 19:04:00,27.8,22.1,30.36,North,0,0.0,0.0,79,0.00,,---,0.04,VWS V14.01,2013-11-20 00:04:00,
2013-11-19 19:09:00,27.8,22.1,30.36,North,0,0.0,0.0,79,0.00,,---,0.04,VWS V14.01,2013-11-20 00:09:00,
2013-11-19 19:14:00,27.8,22.1,30.36,North,0,0.0,0.0,79,0.00,,---,0.04,VWS V14.01,2013-11-20 00:14:00,
2013-11-19 19:19:00,27.8,22.1,30.36,North,0,0.0,0.0,79,0.00,,---,0.04,VWS V14.01,2013-11-20 00:19:00,
2013-11-19 19:24:00,27.8,22.1,30.36,North,0,0.0,0.0,79,0.00,,---,0.04,VWS V14.01,2013-11-20 00:24:00,
2013-11-19 19:29:00,27.8,22.1,30.36,North,0,0.0,0.0,79,0.00,,---,0.04,VWS V14.01,2013-11-20 00:29:00,
2013-11-19 19:30:00,27.8,22.1,30.36,North,0,0.0,0.0,79,0.00,,---,0.04,VWS V14.01,2013-11-20 00:30:00,
2013-11-19 19:34:00,27.8,22.1,30.36,North,0,0.0,0.0,79,0.00,,---,0.04,VWS V14.01,2013-11-20 00:34:00,
2013-11-19 19:39:00,27.8,22.1,30.36,North,0,0.0,0.0,79,0.00,,---,0.04,VWS V14.01,2013-11-20 00:39:00,
2013-11-19 19:44:00,27.8,22.1,30.36,North,0,0.0,0.0,79,0.00,,---,0.04,VWS V14.01,2013-11-20 00:44:00,
2013-11-19 19:49:00,27.8,22.1,30.36,North,0,0.0,0.0,79,0.00,,---,0.04,VWS V14.01,2013-11-20 00:49:00,
2013-11-19 19:54:00,27.8,22.1,30.36,North,0,0.0,0.0,79,0.00,,---,0.04,VWS V14.01,2013-11-20 00:54:00,
2013-11-19 19:59:00,27.8,22.1,30.36,North,0,0.0,0.0,79,0.00,,---,0.04,VWS V14.01,2013-11-20 00:59:00,
2013-11-19 20:00:00,27.8,22.1,30.36,North,0,0.0,0.0,79,0.00,,---,0.04,VWS V14.01,2013-11-20 01:00:00,
2013-11-19 20:04:00,27.8,22.1,30.36,North,0,0.0,0.0,79,0.00,,---,0.04,VWS V14.01,2013-11-20 01:04:00,
2013-11-19 20:09:00,27.8,22.1,30.36,North,0,0.0,0.0,79,0.00,,---,0.04,VWS V14.01,2013-11-20 01:09:00,
2013-11-19 20:14:00,27.8,22.1,30.36,North,0,0.0,0.0,79,0.00,,---,0.04,VWS V14.01,2013-11-20 01:14:00,
2013-11-19 20:19:00,27.8,22.1,30.36,North,0,0.0,0.0,79,0.00,,---,0.04,VWS V14.01,2013-11-20 01:19:00,
2013-11-19 20:24:00,27.8,22.1,30.36,North,0,0.0,0.0,79,0.00,,---,0.04,VWS V14.01,2013-11-20 01:24:00,
2013-11-19 20:29:00,27.8,22.1,30.36,North,0,0.0,0.0,79,0.00,,---,0.04,VWS V14.01,2013-11-20 01:29:00,
2013-11-19 20:30:00,27.8,22.1,30.35,North,0,0.0,0.0,79,0.00,,---,0.04,VWS V14.01,2013-11-20 01:30:00,
2013-11-19 20:34:00,27.8,22.1,30.35,North,0,0.0,0.0,79,0.00,,---,0.04,VWS V14.01,2013-11-20 01:34:00,
2013-11-19 20:39:00,27.8,22.1,30.35,North,0,0.0,0.0,79,0.00,,---,0.04,VWS V14.01,2013-11-20 01:39:00,
2013-11-19 20:44:00,26.6,22.7,30.35,North,0,0.0,0.0,85,0.00,,---,0.04,VWS V14.01,2013-11-20 01:44:00,
2013-11-19 20:49:00,26.4,22.8,30.36,North,0,0.0,0.0,86,0.00,,---,0.04,VWS V14.01,2013-11-20 01:49:00,
2013-11-19 20:54:00,26.4,22.8,30.36,North,0,0.0,0.0,86,0.00,,---,0.04,VWS V14.01,2013-11-20 01:54:00,
2013-11-19 20:59:00,26.1,22.5,30.36,North,0,0.0,0.0,86,0.00,,---,0.04,VWS V14.01,2013-11-20 01:59:00,
2013-11-19 21:00:00,26.1,22.5,30.35,North,0,0.0,0.0,86,0.00,,---,0.04,VWS V14.01,2013-11-20 02:00:00,
2013-11-19 21:04:00,26.1,22.5,30.35,North,0,0.0,0.0,86,0.00,,---,0.04,VWS V14.01,2013-11-20 02:04:00,
2013-11-19 21:09:00,26.1,22.8,30.35,North,0,0.0,0.0,87,0.00,,---,0.04,VWS V14.01,2013-11-20 02:09:00,
2013-11-19 21:14:00,26.0,22.9,30.35,North,0,0.0,0.0,88,0.00,,---,0.04,VWS V14.01,2013-11-20 02:14:00,
2013-11-19 21:19:00,26.0,22.9,30.35,North,0,0.0,0.0,88,0.00,,---,0.04,VWS V14.01,2013-11-20 02:19:00,
2013-11-19 21:24:00,25.8,22.7,30.35,North,0,0.0,0.0,88,0.00,,---,0.04,VWS V14.01,2013-11-20 02:24:00,
2013-11-19 21:29:00,25.8,23.0,30.35,North,0,0.0,0.0,89,0.00,,---,0.04,VWS V14.01,2013-11-20 02:29:00,
2013-11-19 21:30:00,25.8,23.0,30.35,North,0,0.0,0.0,89,0.00,,---,0.04,VWS V14.01,2013-11-20 02:30:00,
2013-11-19 21:34:00,25.8,23.0,30.35,North,0,0.0,0.0,89,0.00,,---,0.04,VWS V14.01,2013-11-20 02:34:00,
2013-11-19 21:39:00,26.0,23.2,30.35,North,0,0.0,0.0,89,0.00,,---,0.04,VWS V14.01,2013-11-20 02:39:00,
2013-11-19 21:44:00,26.0,23.2,30.35,North,0,0.0,0.0,89,0.00,,---,0.04,VWS V14.01,2013-11-20 02:44:00,
2013-11-19 21:49:00,26.0,23.2,30.34,North,0,0.0,0.0,89,0.00,,---,0.04,VWS V14.01,2013-11-20 02:49:00,
2013-11-19 21:54:00,26.1,23.0,30.34,SE,133,0.0,2.0,88,0.00,,---,0.04,VWS V14.01,2013-11-20 02:54:00,
2013-11-19 21:59:00,26.1,22.8,30.34,SE,136,0.0,3.0,87,0.00,,---,0.04,VWS V14.01,2013-11-20 02:59:00,
2013-11-19 22:00:00,26.1,22.8,30.34,SE,136,0.0,3.0,87,0.00,,---,0.04,VWS V14.01,2013-11-20 03:00:00,
2013-11-19 22:04:00,26.3,23.0,30.34,SE,143,0.0,2.0,87,0.00,,---,0.04,VWS V14.01,2013-11-20 03:04:00,
2013-11-19 22:09:00,26.4,22.8,30.34,SSE,157,0.0,3.0,86,0.00,,---,0.04,VWS V14.01,2013-11-20 03:09:00,
2013-11-19 22:14:00,26.9,22.7,30.34,SE,126,0.0,4.0,84,0.00,,---,0.04,VWS V14.01,2013-11-20 03:14:00,
2013-11-19 22:19:00,27.2,22.4,30.34,SE,126,0.0,4.0,82,0.00,,---,0.04,VWS V14.01,2013-11-20 03:19:00,
2013-11-19 22:24:00,27.5,22.5,30.34,SE,127,0.0,4.0,81,0.00,,---,0.04,VWS V14.01,2013-11-20 03:24:00,
2013-11-19 22:29:00,27.6,22.2,30.34,East,97,1.0,4.0,80,0.00,,---,0.04,VWS V14.01,2013-11-20 03:29:00,
2013-11-19 22:30:00,27.6,22.2,30.34,ESE,120,0.0,4.0,80,0.00,,---,0.04,VWS V14.01,2013-11-20 03:30:00,
2013-11-19 22:34:00,27.8,22.1,30.34,SSE,168,0.0,3.0,79,0.00,,---,0.04,VWS V14.01,2013-11-20 03:34:00,
2013-11-19 22:39:00,27.9,22.2,30.34,SE,143,1.0,3.0,79,0.00,,---,0.04,VWS V14.01,2013-11-20 03:39:00,
2013-11-19 22:45:00,28.1,22.1,30.34,SE,138,0.0,3.0,78,0.00,,---,0.04,VWS V14.01,2013-11-20 03:45:00,
2013-11-19 22:50:00,28.4,22.1,30.34,South,182,1.0,3.0,77,0.00,,---,0.04,VWS V14.01,2013-11-20 03:50:00,
2013-11-19 22:55:00,28.4,22.1,30.34,South,182,0.0,3.0,77,0.00,,---,0.04,VWS V14.01,2013-11-20 03:55:00,
2013-11-19 23:00:00,28.4,22.4,30.34,South,184,0.0,3.0,78,0.00,,---,0.04,VWS V14.01,2013-11-20 04:00:00,
2013-11-19 23:05:00,28.2,22.5,30.34,South,184,0.0,0.0,79,0.00,,---,0.04,VWS V14.01,2013-11-20 04:05:00,
2013-11-19 23:10:00,28.2,22.5,30.34,South,184,0.0,0.0,79,0.00,,---,0.04,VWS V14.01,2013-11-20 04:10:00,
2013-11-19 23:15:00,28.1,22.4,30.34,South,172,0.0,1.0,79,0.00,,---,0.04,VWS V14.01,2013-11-20 04:15:00,
2013-11-19 23:20:00,28.1,22.4,30.33,South,174,2.0,2.0,79,0.00,,---,0.04,VWS V14.01,2013-11-20 04:20:00,
2013-11-19 23:25:00,28.4,22.1,30.33,SSE,151,3.0,4.0,77,0.00,,---,0.04,VWS V14.01,2013-11-20 04:25:00,
2013-11-19 23:30:00,28.5,21.9,30.33,SE,140,0.0,4.0,76,0.00,,---,0.04,VWS V14.01,2013-11-20 04:30:00,
2013-11-19 23:35:00,28.7,22.1,30.34,SE,143,0.0,1.0,76,0.00,,---,0.04,VWS V14.01,2013-11-20 04:35:00,
2013-11-19 23:40:00,28.8,22.2,30.34,SE,128,0.0,1.0,76,0.00,,---,0.04,VWS V14.01,2013-11-20 04:40:00,
2013-11-19 23:45:00,28.8,22.5,30.34,SE,128,0.0,1.0,77,0.00,,---,0.04,VWS V14.01,2013-11-20 04:45:00,
2013-11-19 23:50:00,29.0,22.7,30.34,SW,227,0.0,2.0,77,0.00,,---,0.04,VWS V14.01,2013-11-20 04:50:00,
2013-11-19 23:55:00,29.0,22.7,30.34,SW,227,0.0,2.0,77,0.00,,---,0.04,VWS V14.01,2013-11-20 04:55:00,